Regional Weather Roundup
Issued by NWS

Home | Current Version | Previous Version | Graphics & Text | Print | Product List | Glossary On
Versions: 1 2 3 4 5 6 7 8 9 10 11 12 13 14 15 16 17 18 19 20 21 22 23 24 25 26 27 28 29 30 31 32 33 34 35 36 37 38 39 40 41 42 43 44 45 46 47 48 49 50
000
ASUS45 KCYS 050510
RWRWY

WYOMING REGIONAL WEATHER ROUNDUP
NATIONAL WEATHER SERVICE CHEYENNE WY
1100 PM MDT FRI SEP 04 2015

NOTE:  "FAIR" INDICATES FEW OR NO CLOUDS BELOW 12,000 FEET
WITH NO SIGNIFICANT WEATHER AND/OR OBSTRUCTIONS TO VISIBILITY.

WYZ001-050600-
YELLOWSTONE NATIONAL PARK

CITY           SKY/WX    TMP DP  RH WIND       PRES   REMARKS
LK YELLOWSTONE   N/A     48  41  76 CALM      30.00F
W YELLOWSTONE  NOT AVBL

$$
WYZ002>013-054>058-071-098>099-050600-
NORTHERN WYOMING

CITY           SKY/WX    TMP DP  RH WIND       PRES   REMARKS
JACKSON        MOCLDY    57  46  67 E8        29.89F
CODY           FAIR      54  43  66 NW12      29.97S
GREYBULL       FAIR      64  46  52 NW22      29.83F
WORLAND        FAIR      62  49  62 W12       29.88F
SHERIDAN       MOCLDY    59  53  80 W5        29.92F
BUFFALO        FAIR      59  50  72 NW14G28   29.94F
GILLETTE       FAIR      61  52  72 W5        29.88S
HULETT         FAIR      64  54  68 SE5       29.87F
NEWCASTLE      FAIR      72  43  35 NE6       29.87F

$$
WYZ014>020-022>026-101>103-050600-
CENTRAL WYOMING

CITY           SKY/WX    TMP DP  RH WIND       PRES   REMARKS
BIG PINEY      FAIR      54  37  52 NW3       30.02R
PINEDALE       MOCLDY    55  37  50 SE8       30.03S
DUBOIS         FAIR      63  30  29 S14       29.96F
LANDER         FAIR      67  40  37 SE22G30   29.90R
RIVERTON       MOCLDY    68  41  37 S24G38    29.92R
CASPER         FAIR      61  49  64 SW7       29.94S
DOUGLAS        LGT RAIN  63  55  75 SE5       29.95R

$$
WYZ021-027>030-104>119-050600-
SOUTHERN WYOMING

CITY           SKY/WX    TMP DP  RH WIND       PRES   REMARKS
EVANSTON       FAIR      57  36  45 S10       29.98R
KEMMERER       FAIR      59  34  38 S7        30.00S
FORT BRIDGER   CLEAR     59  37  44 S10       30.02S
ROCK SPRINGS   FAIR      60  41  49 S25G32    30.04R
DIXON          FAIR      56  48  73 CALM      30.10S
RAWLINS        FAIR      56  44  64 W9        30.09R
SARATOGA       FAIR      57  43  58 S6        30.10R
LARAMIE        FAIR      56  47  71 SW7       30.10S
CHEYENNE       CLOUDY    64  51  62 W10       30.02S
TORRINGTON     FAIR      70  51  51 NE9       29.87F
PINE BLUFFS    MOCLDY    66  43  42 NE3       29.96S

$$



USA.gov is the U.S. government's official web portal to all federal, state and local government web resources and services.